Location: Newark
(34.1333°N, 7.9667°W)
Time: 10:58:03
(UTC+00:00)

AO-85 - Visible Passes

Search period start: 05 June 2023 00:00
Search period end: 15 June 2023 00:00
Orbit: 516 x 753 km, 64.8° (Epoch: 04 January)

Date Brightness Start Highest point End Pass type
(mag) Time Alt. Az. Time Alt. Az. Time Alt. Az.
05 Jun ? 22:39:26 10° N 22:42:03 28° NNE 22:42:03 28° NNE visible
06 Jun ? 23:00:12 10° NNW 23:02:32 34° NNW 23:02:32 34° NNW visible
07 Jun ? 21:42:15 10° N 21:45:10 19° NE 21:45:42 18° ENE visible
07 Jun ? 23:21:34 10° NW 23:23:04 20° WNW 23:23:04 20° WNW visible
08 Jun ? 22:02:29 10° NNW 22:06:15 44° NE 22:06:15 44° NE visible
09 Jun ? 20:46:12 10° NE 20:47:03 11° NE 20:47:54 10° ENE visible
09 Jun ? 22:23:24 10° NW 22:26:51 58° WNW 22:26:51 58° WNW visible
10 Jun ? 21:05:05 10° N 21:08:25 24° NE 21:10:07 19° E visible
10 Jun ? 22:44:59 10° WNW 22:47:30 23° W 22:47:30 23° W visible
11 Jun ? 21:25:32 10° NNW 21:29:35 60° ENE 21:30:49 41° ESE visible
12 Jun ? 20:08:11 10° NNE 20:10:19 14° NE 20:12:28 10° E visible
12 Jun ? 21:46:36 10° NW 21:50:36 50° WSW 21:51:33 41° SSW visible
13 Jun ? 20:27:56 10° N 20:31:35 31° ENE 20:34:57 12° ESE visible
13 Jun ? 22:08:29 10° WNW 22:11:30 19° WSW 22:12:21 18° SW visible
14 Jun ? 20:48:34 10° NNW 20:52:41 80° ENE 20:55:48 19° SSE visible
